Location: *
(43.4667°N, 11.6833°E)
Time: 09:41:13
(UTC+00:00)

CZ-2C R/B - Pass Details

Date: 19 July 2019
Orbit: 784 x 871 km, 98.3° (Epoch: 26 August)

Event Time Altitude Azimuth Distance (km) Brightness Sun altitude
Rises 19:19:34 0° 27° (NNE) 3,312 5.9 -5.4°
Reaches altitude 10° 19:22:28 10° 43° (NE) 2,366 5.0 -5.9°
Maximum altitude 19:26:24 21° 92° (E) 1,696 3.8 -6.5°
Drops below altitude 10° 19:30:16 10° 141° (SE) 2,337 4.4 -7.0°
Enters shadow 19:31:09 - 147° (SSE) 2,603 4.6 -7.1°
